O3B FM15 (43231 NORAD) Tracking and Keplerian Element Data

This shows tracking and keplerian element data for the satellite.

Feedback or suggestion? Click here.




ElementValue
Catalog43231
NameO3B FM15
Epoch Orbit1271
Epoch Day322.60465734
Epoch Year2018
RAAN7.6801
Inclination0.0384
Eccentricity0.0002768
Argument of Perigee230.2158
Mean Anonmoly122.0841
Mean Motion5.00115504
Decay Rate-1.7E-07
L11 43231U 18024A 18322.60465734 -.00000017 00000-0 00000-0 0 9998
L22 43231 0.0384 7.6801 0002768 230.2158 122.0841 5.00115504 12716

Live tracking and technical data element details for O3B FM15 (NORAD 43231). O3B FM15 can be tracked NOW for your location showing map with azimuth and elevation plus other details from your city location.

Track the satellite on the map from your city or location and see movement details for azimuth, elevation, latitude, longitude, range, height, and movement on the map or in text.







IsCatalogInMostPopularTable: catalog: 43231, numindb: 81
Update: records affected: 1



GetName: 43231 O3B FM15

Hit Count: updated at: Tue, 20 Nov 2018 07:54:55 GMT